SARI-1

导读

SARI-1(NORAD编号66668)是沙特学生团队研发并成功入轨的小型卫星,源于沙特航天局2024年12月发起的卫星设计竞赛SARI项目。该项目吸引沙特全国42所高校、480余支学生团队参与,经过全流程设计研发与严苛评审,乌尔库拉大学等高校团队设计的SARI-1脱颖而出,最终实现发射入轨。作为沙特航天人才培养实践平台的成果,它不仅是沙特学生航天设计的落地结晶,更是该国航天产业发展的标志性一步,将激励更多年轻人投身航天领域,推动本土航天人才队伍建设。

Basic Information
目录编号:
66668
目录名称:
SARI-1
国际标识:
2025-276C
轨道中心:
EARTH
卫星名称:
SARI-1
卫星全名:
SARI-1
卫星状态:
在轨 (已飞行280 天)
发射日期:
2025-11-28 UTC
国别 :
巴西 (BR)
星等 :
--
Orbit Information
数据来源 国际轨道数据
星历时间: 2026-09-03T23:17:58+0800
12小时前
查看轨道信息
半长轴: 6847.721km
偏心率: 0.0007194
轨道倾角: 97.398°
近地点辐角 94.369°
升交点赤经 320.541°
平近点角 265.838°
近地点: 464.657km
远地点: 474.511km
周期: 93.989分钟
每日圈数: 15.320881
Detailed Information
使用方式:
暂无
2D Orbit Map
3D Orbit Map
Orbit Altitude Analysis Chart
Orbit Inclination Analysis Chart
Orbit Comprehensive Analysis Chart
View Comprehensive Chart
Conjunction Data List
Event ID Objects TCA Miss Dist (km) Collision Risk Probability Collision Risk Index (CRI) Action
CDM_260827-212404-102606-666824
SARI-1 (66668)
2026-08-27T
21:24:51+0000
0.209 km
中距离
6.187995E-4 高风险 0.91
CDM_260903-110206-666806-811224
SARI-1 (66668)
2026-09-03T
11:02:12+0000
1.076 km
极远距离
1.897716E-5 中风险 0.61
CDM_260905-093706-547806-666821
SARI-1 (66668)
2026-09-05T
09:37:07+0000
1.548 km
极远距离
6.03712E-6 低风险 0.51
CDM_260905-053105-324406-666821
SARI-1 (66668)
2026-09-05T
05:31:13+0000
1.850 km
极远距离
3.434618E-6 低风险 0.46
CDM_260905-052906-349906-666821
SARI-1 (66668)
2026-09-05T
05:29:33+0000
1.846 km
极远距离
2.597632E-6 低风险 0.43
CDM_260905-035604-773906-666821
SARI-1 (66668)
2026-09-05T
03:56:33+0000
2.064 km
极远距离
2.563811E-6 低风险 0.43
CDM_260905-100106-666806-931621
SARI-1 (66668)
2026-09-05T
10:01:33+0000
2.131 km
极远距离
1.449234E-6 低风险 0.38